STARLINK-3528, 51714

Orbit data source: Space-Track

STARLINK-3528, 51714 is a payload satellite owned by SpaceX/Seattle (US) in LEO that was launched on Mon, 21 Feb 2022 UTC via an FALCON 9 launch vehicle from the Air Force Eastern Test Range (AFETR). Payload-class satellites include a variety of spacecraft equipped with specific instruments for various scientific and technological missions. These include communications satellites like Starlink; space stations such as the ISS; scientific satellites like the Hubble; Earth observation satellites from companies like Planet Labs, Umbra, and HawkEye 360; GPS; miniature CubeSats for education and research; and military/defense satellites.

Loading next visibility...
Identifier
51714, 2022-016A
Orbit
LEO
Country
Flag of USUS
Related business
Manufacturer
SpaceX/Seattle
Mission
Operational Commercial Communications
Bus & Motor
STARLINK, Unknown motor
Mass
297 kg wet, ~275 kg dry
Launch date (UTC)
2022-02-21 (4 years ago)
Launch vehicle
FALCON 9
Launch site
Air Force Eastern Test Range (AFETR)
Object type
Payload
Rocket body
Debris
Shape & HBR
Box + 1 Pan, 10.1 m
Radar Cross Section
13.562 m², Large (>1 m²)

Expand to show TLE details & history
Last TLE update: 2 days ago

TLE from 2 days ago
0 STARLINK-3528
1 51714U 22016A   26171.41627213  .00000026  00000-0  19686-4 0  9994
2 51714  53.1606 227.8243 0000703  63.2114 296.8950 15.08832105238933
Epoch: 2026-06-20T09:59Z
TLE epoch observation values (Epoch: 2026-06-20T09:59:25.912Z)
Latitude
0.00006°
Longitude
169.33517°
Altitude
540.439 km
Speed
7.593 km/s
True Right ascension
15h 11m 17s
True Declination
0° 00' 00"
Sunlit
Object was in full shadow at epoch
Visualization orbit readout
Latitude
Unknown
Longitude
Unknown
Altitude
Unknown
Speed
Unknown
Apparent Right ascension
Unknown
Apparent Declination
Unknown
Sunlit
N/A
Visualization observer readout
Local Sidereal Time
21:32:18
Azimuth
Unknown
Elevation
Unknown
Doppler factor
Unknown
Orbital elements
Apogee altitude
540.508 km
Perigee altitude
539.535 km
Semi-major axis
6,918.159 km
Eccentricity
0.00007
Inclination
53.1606°
RAAN
227.8243°
Arg. of periapsis
63.2114°
True anomaly
296.88782°
Mean anomaly
296.895°
Eccentric anomaly
296.89141°
Mean motion
3.77188 °/min
Orbital period
95.44 mins
BSTAR
0.000019686
Loading maneuver chart data...
Computing Atmospheric mass density...
Loading historical data...
Loading historical data...
Loading historical data...
Loading historical data...
Loading historical data...
Loading historical data...
Loading historical data...

Documentation

Showing up to 5 results
|